This is the latest recevied weather packets stored in our database for station/object DM0MR. If no packets are shown the sender has not sent any weather packets the latest 1 day(s).
| Time | Temp. | Humidity | Pressure | Rain* | Wind** | Luminosity | Snow |
|---|---|---|---|---|---|---|---|
| 1777975899 | 16.67° C | 89% | 999.5 hPa | 0 mm | 0 m/s | - | - |
| 1777975000 | 16.67° C | 89% | 999.5 hPa | 0 mm | 0 m/s | - | - |
| 1777974099 | 16.67° C | 91% | 999.6 hPa | 0 mm | 0 m/s | - | - |
| 1777973199 | 16.67° C | 92% | 999.8 hPa | 0 mm | 0 m/s | - | - |
| 1777972300 | 16.11° C | 93% | 999.5 hPa | 0 mm | 0 m/s | - | - |
| 1777971398 | 15.56° C | 94% | 999.6 hPa | 0 mm | 0 m/s | - | - |
| 1777970499 | 15.56° C | 95% | 999.6 hPa | 0 mm | 0 m/s | - | - |
| 1777969598 | 15.56° C | 96% | 999.7 hPa | 0 mm | 0 m/s | - | - |
| 1777968700 | 15.56° C | 96% | 999.6 hPa | 0 mm | 0 m/s | - | - |
| 1777967801 | 15° C | 97% | 999.4 hPa | 0 mm | 0 m/s | - | - |
| 1777965999 | 14.44° C | 98% | 999.7 hPa | 0 mm | 0 m/s | - | - |
| 1777965100 | 15° C | 99% | 999.6 hPa | 0 mm | 0 m/s | - | - |
| 1777964198 | 15° C | 99% | 999.5 hPa | 0 mm | 0 m/s | - | - |
| 1777963300 | 14.44° C | 99% | 999.6 hPa | 0 mm | 0 m/s | - | - |
| 1777961498 | 14.44° C | 99% | 999.7 hPa | 0 mm | 0.45 m/s, 158° | - | - |
| 1777960599 | 13.89° C | 99% | 999.8 hPa | 0 mm | 0 m/s | - | - |
| 1777959699 | 13.89° C | 99% | 999.9 hPa | 0 mm | 0 m/s | - | - |
| 1777958799 | 13.33° C | 99% | 1000.1 hPa | 0.25 mm | 0 m/s | - | - |
| 1777957900 | 13.33° C | 99% | 1000 hPa | 0.51 mm | 0 m/s | - | - |
| 1777956998 | 13.33° C | 99% | 1000.1 hPa | 1.02 mm | 0 m/s | - | - |
| 1777956098 | 13.33° C | 99% | 1000.2 hPa | 1.27 mm | 0 m/s | - | - |
| 1777954298 | 12.78° C | 99% | 1000.4 hPa | 0.76 mm | 0 m/s | - | - |
| 1777953399 | 12.78° C | 99% | 1000.7 hPa | 0.25 mm | 0 m/s | - | - |
| 1777952500 | 12.78° C | 97% | 1000.6 hPa | 0 mm | 0 m/s | - | - |
| 1777951600 | 12.78° C | 97% | 1000.5 hPa | 0 mm | 0 m/s | - | - |
* Rain latest hour (hover to see other rain measurements)
** Current wind speed in m/s (hover to see current wind gust speed)